Regional Weather Roundup
Issued by NWS Mobile, AL

Home | Current Version | Previous Version | Text Only | Print | Product List | Glossary On
Versions: 1 2 3 4 5 6 7 8 9 10 11 12 13 14 15 16 17 18 19 20 21 22 23 24 25 26 27 28 29 30 31 32 33 34 35 36 37 38 39 40 41 42 43 44 45 46 47 48 49 50
000
ASUS44 KMOB 261512
RWRMOB
REGIONAL WEATHER ROUNDUP
NATIONAL WEATHER SERVICE MOBILE AL
1000 AM CDT MON SEP 26 2016

NOTE: "FAIR" INDICATES FEW OR NO CLOUDS BELOW 12,000 FEET WITH NO
      SIGNIFICANT WEATHER AND/OR OBSTRUCTIONS TO VISIBILITY.

  * THESE STATIONS ARE PART OF THE UNIVERSITY OF SOUTH ALABAMA
    MESONET AND ARE NOT UNDER NWS OR FAA QUALITY CONTROL.

ALZ061>064-261600-
COASTAL ALABAMA

CITY           SKY/WX    TMP DP  RH WIND       PRES   REMARKS
MOBILE REG APT MOSUNNY   82  68  62 CALM      30.04S
BROOKLEY FIELD SUNNY     80  72  76 E6        30.04S
USA CAMPUS*    NOT AVBL
DOG RIVER*     NOT AVBL


CITY           SKY/WX    TMP DP  RH WIND       PRES   REMARKS
MOUNT VERNON*  NOT AVBL
SARALAND*      NOT AVBL
BAY MINETTE*   NOT AVBL
LOXLEY*        NOT AVBL
ROBERTSDALE*   NOT AVBL
FAIRHOPE*      NOT AVBL
ELBERTA*       NOT AVBL
FOLEY*         NOT AVBL
GRAND BAY*     NOT AVBL
DAUPHIN ISLND* NOT AVBL
BON SCOUR NWR* NOT AVBL
GULF SHORES    MOSUNNY   81  76  84 NE5       30.03S

$$

ALZ051>060-261600-
INTERIOR SOUTHWEST AND SOUTH CENTRAL ALABAMA

CITY           SKY/WX    TMP DP  RH WIND       PRES   REMARKS
GREENVILLE     NOT AVBL
EVERGREEN      MOSUNNY   79  70  74 VRB5      30.06R
CASTLEBERRY*   NOT AVBL
ATMORE*        NOT AVBL
DIXIE*         NOT AVBL
ANDALUSIA/OPP  MOSUNNY   83  70  64 VRB3      30.05R
ANDALUSIA*     NOT AVBL
FLORALA APT    NOT AVBL
FLORALA*       NOT AVBL

$$

FLZ001>006-261600-
WESTERN FLORIDA PANHANDLE

CITY           SKY/WX    TMP DP  RH WIND       PRES   REMARKS
PENSACOLA      CLOUDY    80  72  76 CALM      30.03R
NAS PENSACOLA  PTSUNNY   84  74  71 E3        30.02S
MILTON         CLOUDY    78  73  84 SE3       30.04R
WHTNG S FIELD  CLOUDY    82  73  74 CALM      30.04R


CITY           SKY/WX    TMP DP  RH WIND       PRES   REMARKS
WALNUT HILL*   NOT AVBL
JAY*           NOT AVBL
DUKE FIELD     MOSUNNY   83  71  67 E5        30.03R
CRESTVIEW      SUNNY     82  71  69 VRB3      30.05S
VALPARAISO     MOSUNNY   84  72  67 E5        30.02S
DESTIN         SUNNY     85  74  69 NE6       30.03R

$$

MSZ076-079-261600-
INTERIOR SOUTHEAST MISSISSIPPI

CITY           SKY/WX    TMP DP  RH WIND       PRES   REMARKS
LEAKESVILLE*   NOT AVBL
AGRICOLA*      NOT AVBL

$$

MARINE OBSERVATIONS

STATION/POSITION TIME  TEMP    WIND        PRES    WAVE
                       AIR SEA DIR/SP/G            HT/PER
                 (UTC) (F)     (DEG/KT/KT) (MB)    (FT/S)
PASCAGOULA       1400   82     350/  3/  4 1016.0F
PETIT BOIS ISLND 1400   81     360/  5/  6 1016.9S
GRAND BAY        1345   80     340/  4     1017.0S
KATRINA CUT      1400   81      10/  4     1017.3R
CEDAR POINT      1400   80      60/  5     1016.6R
E DAUPHIN ISLAND 1400   82      70/  3/  4 1016.2R
MIDDLE BAY LIGHT 1400   80      60/  4     1016.6S
USCG MOBILE BAY  1400   79 85  140/  2/  3 1017.4R
STATE DOCKS      1400   80                 1016.7R
MEAHER PARK      1400   77     120/  4     1016.9R
WEEKS BAY        1300   75                   N/A
FORT MORGAN      1400   82      50/  4/  7 1015.9F
12 S ORANGE BCH  1450   82 86   10/  4/  6 1016.5R   1
PENSACOLA BAY    1400   78 85   60/  2/  4 1016.8R
64 S DAUPHIN ISL 1400   82 85  360/ 10/ 12 1016.0R
67 S FORT MORGAN 1430   84        CALM     1016.3S

$$

SELECTED LOCATIONS ACROSS THE REGION

CITY           SKY/WX    TMP DP  RH WIND       PRES   REMARKS
NEW ORLEANS    MOSUNNY   86  75  69 N7        30.03R HX  95
GULFPORT       SUNNY     85  70  60 N5        30.02R
PASCAGOULA AP  SUNNY     85  74  69 N3        30.03R
PASCAGOULA*    NOT AVBL
HATTIESBURG    SUNNY     82  71  69 NW5       30.04S
LAUREL         SUNNY     81  72  74 CALM      30.05R
MERIDIAN       SUNNY     84  68  58 CALM      30.03R
JACKSON        SUNNY     84  69  60 NW6       30.05R
MONTGOMERY     SUNNY     83  67  58 VRB3      30.06R
TROY           SUNNY     81  71  71 S6        30.07R
KINSTON*       NOT AVBL
GENEVA*        NOT AVBL
ASHFORD*       NOT AVBL
DOTHAN         MOSUNNY   81  72  74 E5        30.10R
PANAMA CITY    SUNNY     82  72  69 E3        30.02S

$$




USA.gov is the U.S. government's official web portal to all federal, state and local government web resources and services.